Time,TemperatureF,DewpointF,PressureIn,WindDirection,WindDirectionDegrees,WindSpeedMPH,WindSpeedGustMPH,Humidity,HourlyPrecipIn,Conditions,Clouds,dailyrainin,SoftwareType,DateUTC
2013-09-25 00:06:00,54.0,45.5,30.01,ESE,112,0.0,0.0,73,0.00,,,-99.99,Weather View 32 v60,2013-09-25 05:06:00,
2013-09-25 00:14:00,54.0,45.5,30.02,ESE,112,0.0,0.0,73,0.00,,,-99.99,Weather View 32 v60,2013-09-25 05:14:00,
2013-09-25 00:29:00,53.0,44.2,30.02,ESE,112,0.0,0.0,72,0.00,,,-99.99,Weather View 32 v60,2013-09-25 05:29:00,
2013-09-25 00:44:00,53.0,43.8,30.02,ESE,112,0.0,0.0,71,0.00,,,-99.99,Weather View 32 v60,2013-09-25 05:44:00,
2013-09-25 00:59:00,53.0,44.2,30.02,ESE,112,0.0,0.0,72,0.00,,,-99.99,Weather View 32 v60,2013-09-25 05:59:00,
2013-09-25 01:07:00,53.0,44.2,30.02,ESE,112,0.0,0.0,72,0.00,,,-99.99,Weather View 32 v60,2013-09-25 06:07:00,
2013-09-25 01:14:00,52.0,42.9,30.02,ESE,112,0.0,0.0,71,0.00,,,-99.99,Weather View 32 v60,2013-09-25 06:14:00,
2013-09-25 01:29:00,52.0,43.2,30.02,ESE,112,0.0,0.0,72,0.00,,,-99.99,Weather View 32 v60,2013-09-25 06:29:00,
2013-09-25 01:44:00,52.0,42.5,30.02,ESE,112,0.0,0.0,70,0.00,,,-99.99,Weather View 32 v60,2013-09-25 06:44:00,
2013-09-25 02:07:00,52.0,42.1,30.02,ESE,112,0.0,0.0,69,0.00,,,-99.99,Weather View 32 v60,2013-09-25 07:07:00,
2013-09-25 02:14:00,51.0,40.8,30.02,ESE,112,0.0,0.0,68,0.00,,,-99.99,Weather View 32 v60,2013-09-25 07:14:00,
2013-09-25 02:29:00,51.0,40.8,30.02,ESE,112,0.0,0.0,68,0.00,,,-99.99,Weather View 32 v60,2013-09-25 07:29:00,
2013-09-25 02:44:00,51.0,40.8,30.03,ESE,112,0.0,0.0,68,0.00,,,-99.99,Weather View 32 v60,2013-09-25 07:44:00,
2013-09-25 02:59:00,51.0,41.2,30.03,ESE,112,0.0,0.0,69,0.00,,,-99.99,Weather View 32 v60,2013-09-25 07:59:00,
2013-09-25 03:08:00,51.0,41.2,30.03,ESE,112,0.0,0.0,69,0.00,,,-99.99,Weather View 32 v60,2013-09-25 08:08:00,
2013-09-25 03:14:00,50.0,40.2,30.04,ENE,67,0.0,1.0,69,0.00,,,-99.99,Weather View 32 v60,2013-09-25 08:14:00,
2013-09-25 03:29:00,51.0,40.8,30.03,North,360,0.0,1.0,68,0.00,,,-99.99,Weather View 32 v60,2013-09-25 08:29:00,
2013-09-25 03:44:00,50.0,39.8,30.03,North,360,0.0,1.0,68,0.00,,,-99.99,Weather View 32 v60,2013-09-25 08:44:00,
2013-09-25 03:59:00,50.0,39.8,30.03,East,90,0.0,1.0,68,0.00,,,-99.99,Weather View 32 v60,2013-09-25 08:59:00,
2013-09-25 04:09:00,50.0,39.8,30.03,East,90,0.0,1.0,68,0.00,,,-99.99,Weather View 32 v60,2013-09-25 09:09:00,
2013-09-25 04:14:00,50.0,39.8,30.03,East,90,0.0,0.0,68,0.00,,,-99.99,Weather View 32 v60,2013-09-25 09:14:00,
2013-09-25 04:29:00,50.0,39.8,30.03,East,90,0.0,0.0,68,0.00,,,-99.99,Weather View 32 v60,2013-09-25 09:29:00,
2013-09-25 04:44:00,49.0,38.9,30.02,East,90,0.0,0.0,68,0.00,,,-99.99,Weather View 32 v60,2013-09-25 09:44:00,
2013-09-25 04:59:00,49.0,39.3,30.04,East,90,0.0,0.0,69,0.00,,,-99.99,Weather View 32 v60,2013-09-25 09:59:00,
2013-09-25 05:09:00,49.0,39.3,30.04,East,90,0.0,0.0,69,0.00,,,-99.99,Weather View 32 v60,2013-09-25 10:09:00,
2013-09-25 05:29:00,49.0,38.9,30.03,East,90,0.0,0.0,68,0.00,,,-99.99,Weather View 32 v60,2013-09-25 10:29:00,
2013-09-25 05:44:00,49.0,39.3,30.03,East,90,0.0,0.0,69,0.00,,,-99.99,Weather View 32 v60,2013-09-25 10:44:00,
2013-09-25 05:59:00,49.0,39.3,30.03,East,90,0.0,0.0,69,0.00,,,-99.99,Weather View 32 v60,2013-09-25 10:59:00,
2013-09-25 06:10:00,49.0,39.3,30.03,East,90,0.0,0.0,69,0.00,,,-99.99,Weather View 32 v60,2013-09-25 11:10:00,
2013-09-25 06:29:00,48.0,38.3,30.03,East,90,0.0,0.0,69,0.00,,,-99.99,Weather View 32 v60,2013-09-25 11:29:00,
2013-09-25 06:44:00,48.0,38.3,30.04,East,90,0.0,0.0,69,0.00,,,-99.99,Weather View 32 v60,2013-09-25 11:44:00,
2013-09-25 06:59:00,48.0,38.3,30.04,East,90,0.0,0.0,69,0.00,,,-99.99,Weather View 32 v60,2013-09-25 11:59:00,
2013-09-25 07:10:00,48.0,38.3,30.04,East,90,0.0,0.0,69,0.00,,,-99.99,Weather View 32 v60,2013-09-25 12:10:00,
2013-09-25 07:29:00,48.0,38.7,30.04,NE,45,0.0,0.0,70,0.00,,,-99.99,Weather View 32 v60,2013-09-25 12:29:00,
2013-09-25 07:44:00,49.0,39.3,30.04,NE,45,0.0,0.0,69,0.00,,,-99.99,Weather View 32 v60,2013-09-25 12:44:00,
2013-09-25 07:59:00,50.0,39.8,30.03,NE,45,0.0,0.0,68,0.00,,,-99.99,Weather View 32 v60,2013-09-25 12:59:00,
2013-09-25 08:11:00,50.0,39.8,30.03,NE,45,0.0,0.0,68,0.00,,,-99.99,Weather View 32 v60,2013-09-25 13:11:00,
2013-09-25 08:29:00,53.0,44.2,30.02,NNW,337,0.0,0.0,72,0.00,,,-99.99,Weather View 32 v60,2013-09-25 13:29:00,
2013-09-25 08:44:00,56.0,46.7,30.00,North,360,0.0,0.0,71,0.00,,,-99.99,Weather View 32 v60,2013-09-25 13:44:00,
2013-09-25 08:59:00,59.0,50.3,29.99,NE,45,0.0,0.0,73,0.00,,,-99.99,Weather View 32 v60,2013-09-25 13:59:00,
2013-09-25 09:11:00,59.0,50.3,29.99,NE,45,0.0,0.0,73,0.00,,,-99.99,Weather View 32 v60,2013-09-25 14:11:00,
2013-09-25 09:29:00,62.0,57.4,29.97,SSE,157,0.0,4.0,85,0.00,,,-99.99,Weather View 32 v60,2013-09-25 14:29:00,
2013-09-25 09:44:00,65.0,60.4,29.97,East,90,2.0,4.0,85,0.00,,,-99.99,Weather View 32 v60,2013-09-25 14:44:00,
2013-09-25 09:59:00,67.0,59.5,29.97,NW,315,0.0,4.0,77,0.00,,,-99.99,Weather View 32 v60,2013-09-25 14:59:00,
2013-09-25 10:12:00,67.0,59.5,29.97,NW,315,0.0,4.0,77,0.00,,,-99.99,Weather View 32 v60,2013-09-25 15:12:00,
2013-09-25 10:29:00,70.0,60.1,29.95,SE,135,0.0,6.0,71,0.00,,,-99.99,Weather View 32 v60,2013-09-25 15:29:00,
2013-09-25 10:44:00,71.0,59.9,29.95,SE,135,0.0,6.0,68,0.00,,,-99.99,Weather View 32 v60,2013-09-25 15:44:00,
2013-09-25 10:59:00,72.0,60.4,29.94,ESE,112,1.0,7.0,67,0.00,,,-99.99,Weather View 32 v60,2013-09-25 15:59:00,
2013-09-25 11:13:00,72.0,60.4,29.94,ESE,112,1.0,7.0,67,0.00,,,-99.99,Weather View 32 v60,2013-09-25 16:13:00,
2013-09-25 11:29:00,74.0,59.7,29.92,SSW,202,3.0,9.0,61,0.00,,,-99.99,Weather View 32 v60,2013-09-25 16:29:00,
2013-09-25 11:44:00,74.0,59.7,29.92,South,180,0.0,10.0,61,0.00,,,-99.99,Weather View 32 v60,2013-09-25 16:44:00,
2013-09-25 11:59:00,75.0,60.1,29.91,ESE,112,0.0,10.0,60,0.00,,,-99.99,Weather View 32 v60,2013-09-25 16:59:00,
2013-09-25 12:13:00,75.0,60.1,29.91,ESE,112,0.0,10.0,60,0.00,,,-99.99,Weather View 32 v60,2013-09-25 17:13:00,
2013-09-25 12:29:00,76.0,59.6,29.90,SSW,202,0.0,12.0,57,0.00,,,-99.99,Weather View 32 v60,2013-09-25 17:29:00,
2013-09-25 12:44:00,76.0,59.1,29.89,South,180,5.0,12.0,56,0.00,,,-99.99,Weather View 32 v60,2013-09-25 17:44:00,
2013-09-25 12:59:00,76.0,58.6,29.88,SSE,157,1.0,12.0,55,0.00,,,-99.99,Weather View 32 v60,2013-09-25 17:59:00,
2013-09-25 13:14:00,76.0,58.6,29.88,SSE,157,1.0,12.0,55,0.00,,,-99.99,Weather View 32 v60,2013-09-25 18:14:00,
2013-09-25 13:29:00,77.0,57.4,29.87,WSW,247,0.0,15.0,51,0.00,,,-99.99,Weather View 32 v60,2013-09-25 18:29:00,
2013-09-25 13:44:00,78.0,58.3,29.85,ESE,112,0.0,15.0,51,0.00,,,-99.99,Weather View 32 v60,2013-09-25 18:44:00,
2013-09-25 13:59:00,78.0,59.4,29.85,West,270,0.0,15.0,53,0.00,,,-99.99,Weather View 32 v60,2013-09-25 18:59:00,
2013-09-25 14:14:00,78.0,59.4,29.84,ESE,112,1.0,15.0,53,0.00,,,-99.99,Weather View 32 v60,2013-09-25 19:14:00,
2013-09-25 14:29:00,78.0,58.9,29.83,South,180,0.0,15.0,52,0.00,,,-99.99,Weather View 32 v60,2013-09-25 19:29:00,
2013-09-25 14:44:00,79.0,58.1,29.82,SSE,157,6.0,15.0,49,0.00,,,-99.99,Weather View 32 v60,2013-09-25 19:44:00,
2013-09-25 14:59:00,78.0,58.3,29.82,SSE,157,0.0,15.0,51,0.00,,,-99.99,Weather View 32 v60,2013-09-25 19:59:00,
2013-09-25 15:14:00,79.0,58.7,29.83,SSW,202,0.0,13.0,50,0.00,,,-99.99,Weather View 32 v60,2013-09-25 20:14:00,
2013-09-25 15:29:00,80.0,60.2,29.81,ESE,112,0.0,19.0,51,0.00,,,-99.99,Weather View 32 v60,2013-09-25 20:29:00,
2013-09-25 15:44:00,79.0,58.7,29.81,South,180,0.0,19.0,50,0.00,,,-99.99,Weather View 32 v60,2013-09-25 20:44:00,
2013-09-25 15:59:00,80.0,58.5,29.80,SE,135,0.0,19.0,48,0.00,,,-99.99,Weather View 32 v60,2013-09-25 20:59:00,
2013-09-25 16:14:00,80.0,59.1,29.80,ESE,112,7.0,19.0,49,0.00,,,-99.99,Weather View 32 v60,2013-09-25 21:14:00,
2013-09-25 16:29:00,80.0,60.2,29.80,WSW,247,0.0,15.0,51,0.00,,,-99.99,Weather View 32 v60,2013-09-25 21:29:00,
2013-09-25 16:44:00,79.0,58.7,29.80,ESE,112,4.0,12.0,50,0.00,,,-99.99,Weather View 32 v60,2013-09-25 21:44:00,
2013-09-25 16:59:00,78.0,57.8,29.79,South,180,2.0,14.0,50,0.00,,,-99.99,Weather View 32 v60,2013-09-25 21:59:00,
2013-09-25 17:14:00,77.0,58.0,29.80,SSE,157,0.0,14.0,52,0.00,,,-99.99,Weather View 32 v60,2013-09-25 22:14:00,
2013-09-25 17:29:00,76.0,58.6,29.80,East,90,3.0,17.0,55,0.00,,,-99.99,Weather View 32 v60,2013-09-25 22:29:00,
2013-09-25 17:44:00,76.0,58.6,29.80,SSE,157,1.0,17.0,55,0.00,,,-99.99,Weather View 32 v60,2013-09-25 22:44:00,
2013-09-25 17:59:00,75.0,57.7,29.79,SE,135,3.0,17.0,55,0.00,,,-99.99,Weather View 32 v60,2013-09-25 22:59:00,
2013-09-25 18:14:00,75.0,57.7,29.80,NE,45,0.0,17.0,55,0.00,,,-99.99,Weather View 32 v60,2013-09-25 23:14:00,
2013-09-25 18:29:00,74.0,57.3,29.79,SSE,157,5.0,12.0,56,0.00,,,-99.99,Weather View 32 v60,2013-09-25 23:29:00,
2013-09-25 18:44:00,74.0,57.8,29.79,ESE,112,3.0,12.0,57,0.00,,,-99.99,Weather View 32 v60,2013-09-25 23:44:00,
2013-09-25 18:59:00,73.0,57.3,29.79,SE,135,0.0,12.0,58,0.00,,,-99.99,Weather View 32 v60,2013-09-25 23:59:00,
2013-09-25 19:14:00,72.0,57.3,29.79,SE,135,0.0,10.0,60,0.00,,,-99.99,Weather View 32 v60,2013-09-26 00:14:00,
2013-09-25 19:29:00,72.0,58.2,29.79,East,90,1.0,10.0,62,0.00,,,-99.99,Weather View 32 v60,2013-09-26 00:29:00,
2013-09-25 19:44:00,71.0,57.7,29.80,South,180,0.0,10.0,63,0.00,,,-99.99,Weather View 32 v60,2013-09-26 00:44:00,
2013-09-25 19:59:00,70.0,57.2,29.80,ESE,112,0.0,9.0,64,0.00,,,-99.99,Weather View 32 v60,2013-09-26 00:59:00,
2013-09-25 20:14:00,70.0,57.7,29.81,South,180,0.0,12.0,65,0.00,,,-99.99,Weather View 32 v60,2013-09-26 01:14:00,
2013-09-25 20:29:00,70.0,58.1,29.81,ESE,112,0.0,12.0,66,0.00,,,-99.99,Weather View 32 v60,2013-09-26 01:29:00,
2013-09-25 20:44:00,69.0,57.1,29.81,ESE,112,1.0,12.0,66,0.00,,,-99.99,Weather View 32 v60,2013-09-26 01:44:00,
2013-09-25 20:59:00,68.0,57.8,29.82,ESE,112,0.0,12.0,70,0.00,,,-99.99,Weather View 32 v60,2013-09-26 01:59:00,
2013-09-25 21:14:00,68.0,58.2,29.83,ESE,112,0.0,8.0,71,0.00,,,-99.99,Weather View 32 v60,2013-09-26 02:14:00,
2013-09-25 21:29:00,68.0,59.0,29.83,East,90,0.0,8.0,73,0.00,,,-99.99,Weather View 32 v60,2013-09-26 02:29:00,
2013-09-25 21:44:00,68.0,59.0,29.83,ENE,67,2.0,7.0,73,0.00,,,-99.99,Weather View 32 v60,2013-09-26 02:44:00,
2013-09-25 21:59:00,68.0,59.0,29.83,East,90,3.0,10.0,73,0.00,,,-99.99,Weather View 32 v60,2013-09-26 02:59:00,
2013-09-25 22:14:00,68.0,59.8,29.84,SE,135,0.0,10.0,75,0.00,,,-99.99,Weather View 32 v60,2013-09-26 03:14:00,
2013-09-25 22:19:00,68.0,59.8,29.84,SE,135,0.0,10.0,75,0.00,,,-99.99,Weather View 32 v60,2013-09-26 03:19:00,
2013-09-25 22:29:00,67.0,59.2,29.84,ESE,112,0.0,10.0,76,0.00,,,-99.99,Weather View 32 v60,2013-09-26 03:29:00,
2013-09-25 22:44:00,66.0,59.3,29.84,ESE,112,0.0,10.0,79,0.00,,,-99.99,Weather View 32 v60,2013-09-26 03:44:00,
2013-09-25 22:59:00,66.0,60.0,29.85,South,180,0.0,10.0,81,0.00,,,-99.99,Weather View 32 v60,2013-09-26 03:59:00,
2013-09-25 23:14:00,66.0,60.3,29.85,ESE,112,0.0,7.0,82,0.00,,,-99.99,Weather View 32 v60,2013-09-26 04:14:00,
2013-09-25 23:20:00,66.0,60.3,29.85,ESE,112,0.0,7.0,82,0.00,,,-99.99,Weather View 32 v60,2013-09-26 04:20:00,
2013-09-25 23:29:00,65.0,59.7,29.85,ENE,67,0.0,7.0,83,0.00,,,-99.99,Weather View 32 v60,2013-09-26 04:29:00,
2013-09-25 23:44:00,65.0,59.7,29.85,NNW,337,0.0,7.0,83,0.00,,,-99.99,Weather View 32 v60,2013-09-26 04:44:00,
2013-09-25 23:59:00,66.0,60.7,29.86,East,90,0.0,9.0,83,0.00,,,-99.99,Weather View 32 v60,2013-09-26 04:59:00,